Waarnemingen

Advertentie
Mijn weer
Brüssel, België (6451): temperatuur & dauwpunt: 16.09.2019 10:00:00 - 22.09.2019 10:00:00 (CEST)Brüssel, België (6451): windsnelheid & windstoten: 16.09.2019 10:00:00 - 22.09.2019 10:00:00 (CEST)Brüssel, België (6451): windrichting: 16.09.2019 10:00:00 - 22.09.2019 10:00:00 (CEST)Brüssel, België (6451): luchtdruk: 16.09.2019 10:00:00 - 22.09.2019 10:00:00 (CEST)Brüssel, België (6451): zicht: 16.09.2019 10:00:00 - 22.09.2019 10:00:00 (CEST)
Datum & Tijd tt [°C] td [°C] ff [km/u] ff [kn] fx [km/u] fx [kn] dd ppp [hPa] vv [km]
22.09.2019 10:00:00 19,9 10,3 18 10 29 16 ZZO 1008,1 10
22.09.2019 09:00:00 17,5 8,6 13 7 22 12 ZZO 1008,1 10
22.09.2019 08:00:00 17,3 7,7 16 9 - - Z 1008,2 10
22.09.2019 07:00:00 17,3 6,5 18 10 32 18 ZZO 1008,2 10
22.09.2019 06:00:00 17,6 5,6 22 12 32 18 ZZO 1008,7 10
22.09.2019 05:00:00 18,1 5,1 21 11 - - ZZO 1009,2 10
22.09.2019 04:00:00 18,3 5,0 22 12 32 18 ZZO 1009,6 10
22.09.2019 03:00:00 18,5 5,1 22 12 29 16 ZZO 1010,3 10
22.09.2019 02:00:00 18,4 5,3 22 12 - - ZZO 1010,7 10
22.09.2019 01:00:00 18,3 6,1 16 9 25 14 ZZO 1011,0 10
22.09.2019 00:00:00 18,1 8,0 16 9 25 14 ZO 1011,6 10
21.09.2019 23:00:00 18,9 9,4 15 8 - - ZO 1012,1 10
21.09.2019 22:00:00 19,6 10,4 15 8 22 12 ZO 1012,4 10
21.09.2019 21:00:00 20,4 10,1 9 5 14 8 OZO 1012,5 10
21.09.2019 20:00:00 20,1 11,0 5 3 - - ONO 1012,3 10
21.09.2019 19:00:00 24,7 10,6 9 5 22 12 O 1012,7 10
21.09.2019 18:00:00 26,0 9,7 13 7 25 14 OZO 1013,1 10
21.09.2019 17:00:00 26,1 8,6 13 7 - - OZO 1013,9 10
21.09.2019 16:00:00 25,3 7,8 13 7 25 14 OZO 1014,6 10
21.09.2019 15:00:00 24,6 7,0 16 9 25 14 OZO 1015,4 10
21.09.2019 14:00:00 22,9 5,7 11 6 - - O 1016,2 10
21.09.2019 13:00:00 20,2 4,9 13 7 22 12 OZO 1017,0 10
21.09.2019 12:00:00 18,0 4,1 13 7 25 14 OZO 1017,8 10
21.09.2019 11:00:00 15,5 4,0 13 7 - - OZO 1018,3 10
21.09.2019 10:00:00 12,5 5,0 8 4 14 8 O 1018,6 10
21.09.2019 09:00:00 9,8 5,0 5 3 11 6 O 1019,0 10
21.09.2019 08:00:00 6,8 3,7 2 1 - - - 1019,2 10
21.09.2019 07:00:00 6,6 3,7 4 2 7 4 O 1019,6 10
21.09.2019 06:00:00 7,2 3,7 5 3 11 6 OZO 1020,1 10
21.09.2019 05:00:00 8,4 3,6 4 2 - - - 1020,6 10
21.09.2019 04:00:00 8,1 3,5 2 1 7 4 O 1020,9 10
21.09.2019 03:00:00 8,2 4,0 2 1 7 4 - 1021,4 10
21.09.2019 02:00:00 10,3 4,2 5 3 - - O 1021,8 10
21.09.2019 01:00:00 12,0 4,1 9 5 22 12 OZO 1022,1 10
21.09.2019 00:00:00 13,4 3,7 13 7 22 12 OZO 1022,6 10
20.09.2019 23:00:00 12,9 4,0 9 5 - - O 1022,9 10
20.09.2019 22:00:00 12,8 3,7 9 5 14 8 O 1023,4 10
20.09.2019 21:00:00 13,7 2,5 8 4 11 6 O 1023,9 10
20.09.2019 20:00:00 15,0 2,1 8 4 - - O 1024,3 10
20.09.2019 19:00:00 16,8 4,1 9 5 25 14 ONO 1024,6 10
20.09.2019 18:00:00 19,2 2,9 13 7 25 14 O 1024,8 10
20.09.2019 17:00:00 19,5 2,7 16 9 - - O 1025,5 10
20.09.2019 16:00:00 19,4 2,9 15 8 25 14 ONO 1026,3 10
20.09.2019 15:00:00 18,5 1,9 14 8 29 16 O 1027,0 15
20.09.2019 14:00:00 18,1 2,0 15 8 - - O 1027,6 10
20.09.2019 13:00:00 16,9 3,6 15 8 25 14 O 1028,4 10
20.09.2019 12:00:00 15,5 4,3 11 6 18 10 ONO 1029,0 10
20.09.2019 11:00:00 13,1 6,1 8 4 - - O 1029,8 10
20.09.2019 10:00:00 10,4 6,1 8 4 11 6 O 1029,7 10
20.09.2019 09:00:00 7,2 6,1 0 0 4 2 N 1029,6 10
20.09.2019 08:00:00 5,4 4,8 2 1 - - O 1029,5 10
20.09.2019 07:00:00 5,3 4,7 4 2 4 2 O 1029,3 10
20.09.2019 06:00:00 5,8 5,1 4 2 4 2 O 1029,5 10
20.09.2019 05:00:00 6,9 5,6 4 2 - - ONO 1029,8 10
20.09.2019 04:00:00 6,8 5,8 4 2 7 4 NO 1030,2 10
20.09.2019 03:00:00 7,6 5,7 4 2 11 6 O 1030,3 10
20.09.2019 02:00:00 8,7 6,2 5 3 - - O 1030,5 10
20.09.2019 01:00:00 8,7 6,0 4 2 7 4 - 1030,7 10
20.09.2019 00:00:00 9,7 6,3 5 3 7 4 O 1030,8 10
19.09.2019 23:00:00 11,2 6,1 5 3 - - O 1030,9 10
19.09.2019 22:00:00 11,9 6,0 4 2 7 4 - 1030,8 10
19.09.2019 21:00:00 11,1 5,5 4 2 7 4 ONO 1030,7 10
19.09.2019 20:00:00 13,0 6,5 5 3 - - NO 1030,4 10
19.09.2019 19:00:00 15,8 6,1 9 5 25 14 ONO 1030,3 10
19.09.2019 18:00:00 16,8 6,0 16 9 25 14 NO 1030,3 10
19.09.2019 17:00:00 16,6 7,4 11 6 - - NO 1030,5 10
19.09.2019 16:00:00 16,1 6,6 13 7 29 16 NNO 1031,0 10
19.09.2019 15:00:00 15,6 6,8 8 4 14 8 O 1031,2 10
19.09.2019 14:00:00 15,3 6,8 5 3 - - ONO 1031,6 10
19.09.2019 13:00:00 15,1 6,3 9 5 32 18 O 1032,0 10
19.09.2019 12:00:00 14,6 6,3 5 3 18 10 ONO 1032,0 10
19.09.2019 11:00:00 13,2 6,9 8 4 - - ONO 1031,9 10
19.09.2019 10:00:00 11,2 8,1 4 2 7 4 - 1031,7 10
19.09.2019 09:00:00 8,3 7,3 2 1 4 2 - 1031,0 10
19.09.2019 08:00:00 5,8 5,1 2 1 - - N 1030,8 10
19.09.2019 07:00:00 6,1 5,4 2 1 4 2 - 1030,4 10
19.09.2019 06:00:00 7,2 6,6 4 2 7 4 O 1030,0 20
19.09.2019 05:00:00 7,0 6,4 4 2 - - - 1030,1 10
19.09.2019 04:00:00 7,0 6,3 5 3 4 2 N 1030,2 10
19.09.2019 03:00:00 7,8 6,4 2 1 4 2 NNW 1030,2 10
19.09.2019 02:00:00 8,8 6,8 0 0 - - N 1030,2 10
19.09.2019 01:00:00 8,6 6,6 2 1 4 2 N 1030,0 10
19.09.2019 00:00:00 9,1 6,4 4 2 7 4 N 1029,7 10
18.09.2019 23:00:00 9,0 6,1 5 3 - - NNO 1029,2 10
18.09.2019 22:00:00 10,2 6,1 5 3 14 8 N 1029,0 10
18.09.2019 21:00:00 11,4 6,6 9 5 18 10 NNO 1028,7 10
18.09.2019 20:00:00 13,0 6,7 8 4 - - N 1028,0 10
18.09.2019 19:00:00 15,2 6,2 16 9 25 14 NNO 1027,8 10
18.09.2019 18:00:00 16,1 6,8 16 9 25 14 N 1027,7 10
18.09.2019 17:00:00 16,5 5,4 13 7 - - N 1027,7 10
18.09.2019 16:00:00 16,6 5,2 13 7 25 14 N 1027,8 10
18.09.2019 15:00:00 17,3 3,8 9 5 22 12 N 1027,9 10
18.09.2019 14:00:00 17,5 5,6 11 6 - - N 1028,4 10
18.09.2019 13:00:00 16,6 4,7 13 7 22 12 NO 1028,7 10
18.09.2019 12:00:00 15,4 5,2 8 4 14 8 - 1028,7 10
18.09.2019 11:00:00 14,3 6,3 8 4 - - ONO 1028,9 10
18.09.2019 10:00:00 11,9 7,3 4 2 7 4 - 1028,5 10
18.09.2019 09:00:00 10,0 7,5 2 1 4 2 - 1028,0 10
18.09.2019 08:00:00 6,9 5,4 5 3 - - ZW 1027,6 10
18.09.2019 07:00:00 6,0 3,7 2 1 4 2 - 1027,2 10
18.09.2019 06:00:00 6,1 3,6 2 1 4 2 W 1027,0 10
18.09.2019 05:00:00 6,3 4,1 2 1 - - ZW 1026,9 10
18.09.2019 04:00:00 7,0 5,5 2 1 4 2 W 1026,8 10
18.09.2019 03:00:00 6,8 4,5 2 1 4 2 - 1026,6 10
18.09.2019 02:00:00 8,6 5,2 0 0 - - N 1026,8 10
18.09.2019 01:00:00 9,0 5,0 2 1 7 4 - 1026,5 10
18.09.2019 00:00:00 8,5 4,8 5 3 11 6 NNO 1026,3 10
17.09.2019 23:00:00 10,3 5,3 8 4 - - N 1026,1 10
17.09.2019 22:00:00 10,5 5,8 9 5 14 8 N 1025,7 10
17.09.2019 21:00:00 12,3 6,1 9 5 32 18 N 1025,3 10
17.09.2019 20:00:00 14,2 6,4 15 8 - - N 1024,5 10
17.09.2019 19:00:00 15,4 6,7 18 10 32 18 NNW 1024,0 10
17.09.2019 18:00:00 16,8 6,6 22 12 36 19 NNW 1023,6 10
17.09.2019 17:00:00 17,9 9,0 22 12 - - NNW 1023,4 10
17.09.2019 16:00:00 17,6 8,4 16 9 29 16 NNW 1023,3 10
17.09.2019 15:00:00 18,0 8,2 15 8 29 16 NNW 1023,1 10
17.09.2019 14:00:00 17,5 7,4 18 10 - - WNW 1023,3 10
17.09.2019 13:00:00 16,8 7,4 11 6 25 14 NNW 1023,4 10
17.09.2019 12:00:00 17,1 7,7 11 6 22 12 NNW 1023,5 10
17.09.2019 11:00:00 15,5 8,2 9 5 - - NW 1023,5 10
17.09.2019 10:00:00 15,0 9,4 5 3 11 6 NW 1023,2 10
17.09.2019 09:00:00 13,6 10,5 5 3 7 4 WNW 1022,6 10
17.09.2019 08:00:00 11,4 10,1 2 1 - - - 1022,4 10
17.09.2019 07:00:00 11,9 9,5 4 2 11 6 - 1022,1 10
17.09.2019 06:00:00 13,5 11,3 9 5 14 8 NNW 1022,1 10
17.09.2019 05:00:00 14,2 11,4 5 3 - - NW 1021,8 10
17.09.2019 04:00:00 14,2 11,4 2 1 4 2 - 1021,8 10
17.09.2019 03:00:00 14,2 11,9 0 0 11 6 N 1022,0 10
17.09.2019 02:00:00 14,4 12,2 5 3 - - N 1022,3 10
17.09.2019 01:00:00 14,6 12,0 9 5 18 10 NNO 1022,3 10
17.09.2019 00:00:00 15,1 12,8 9 5 14 8 N 1022,1 10
16.09.2019 23:00:00 15,5 13,4 5 3 - - NO 1021,9 10
16.09.2019 22:00:00 15,3 13,6 4 2 7 4 NNO 1021,7 10
16.09.2019 21:00:00 15,7 13,7 4 2 14 8 NO 1021,5 10
16.09.2019 20:00:00 16,1 14,0 9 5 - - NO 1021,2 10
16.09.2019 19:00:00 16,7 14,8 9 5 18 10 NNO 1021,0 10
16.09.2019 18:00:00 17,1 15,5 8 4 29 16 N 1020,9 9
16.09.2019 17:00:00 18,6 15,0 15 8 - - N 1020,7 8
16.09.2019 16:00:00 19,0 14,8 15 8 25 14 NNW 1020,5 10
16.09.2019 15:00:00 20,5 14,3 13 7 22 12 NW 1020,4 10
16.09.2019 14:00:00 20,1 13,7 9 5 - - W 1020,5 10
16.09.2019 13:00:00 19,3 13,0 13 7 22 12 W 1020,7 10
16.09.2019 12:00:00 18,6 10,5 11 6 22 12 W 1020,7 10
16.09.2019 11:00:00 17,7 8,9 16 9 - - W 1020,9 10
16.09.2019 10:00:00 16,8 10,8 8 4 18 10 WZW 1020,8 10

tt = temperatuur
td = dauwpunt
ff = windsnelheid
fx = windstoten
dd = windrichting
ppp = luchtdruk
vv = zicht

Weerstations in de omgeving